Météo par heure à Aller

Ce jour, 15 Mai, Samedi

Heure Température Précipitation Vent Pression Humidité
00:00 +9°C° 0 mm 2 m/s 671 mmHg 80%
01:00 +9°C° 0.1 mm 2 m/s 670 mmHg 82%
02:00 +9°C° 0.1 mm 2 m/s 670 mmHg 84%
03:00 +9°C° 0.1 mm 2 m/s 669 mmHg 87%
04:00 +8°C° 0.2 mm 2 m/s 669 mmHg 89%
05:00 +8°C° 0.2 mm 2 m/s 669 mmHg 91%
06:00 +8°C° 0.2 mm 2 m/s 669 mmHg 93%
07:00 +9°C° 0.2 mm 2 m/s 669 mmHg 93%
08:00 +10°C° 0.2 mm 1 m/s 669 mmHg 93%
09:00 +10°C° 0.2 mm 1 m/s 670 mmHg 93%
10:00 +11°C° 0.1 mm 1 m/s 670 mmHg 92%
11:00 +11°C° 0.1 mm 1 m/s 670 mmHg 92%
12:00 +12°C° 0.1 mm 1 m/s 670 mmHg 91%
13:00 +12°C° 0.1 mm 2 m/s 670 mmHg 90%
14:00 +12°C° 0.1 mm 2 m/s 670 mmHg 89%
15:00 +13°C° 0.1 mm 2 m/s 670 mmHg 88%
16:00 +13°C° 0 mm 2 m/s 670 mmHg 88%
17:00 +12°C° 0 mm 2 m/s 670 mmHg 89%
18:00 +12°C° 0 mm 2 m/s 670 mmHg 89%
19:00 +12°C° 0.1 mm 2 m/s 670 mmHg 89%
20:00 +12°C° 0.1 mm 2 m/s 670 mmHg 89%
21:00 +12°C° 0.1 mm 2 m/s 670 mmHg 89%
22:00 +12°C° 0.1 mm 2 m/s 670 mmHg 90%
23:00 +12°C° 0.1 mm 2 m/s 670 mmHg 90%

Demain, 16 Mai, Dimanche

Heure Température Précipitation Vent Pression Humidité
00:00 +10°C° 0.1 mm 2 m/s 669 mmHg 91%
01:00 +10°C° 0.3 mm 2 m/s 669 mmHg 93%
02:00 +11°C° 0.3 mm 1 m/s 669 mmHg 95%
03:00 +11°C° 0.3 mm 1 m/s 669 mmHg 97%
04:00 +11°C° 0.2 mm 1 m/s 669 mmHg 97%
05:00 +11°C° 0.2 mm 1 m/s 670 mmHg 97%
06:00 +11°C° 0.2 mm 1 m/s 670 mmHg 96%
07:00 +11°C° 0.1 mm 1 m/s 670 mmHg 92%
08:00 +10°C° 0.1 mm 2 m/s 671 mmHg 87%
09:00 +12°C° 0.1 mm 2 m/s 671 mmHg 82%
10:00 +13°C° 0 mm 2 m/s 671 mmHg 74%
11:00 +14°C° 0 mm 2 m/s 672 mmHg 67%
12:00 +14°C° 0 mm 3 m/s 672 mmHg 59%
13:00 +14°C° 0 mm 3 m/s 672 mmHg 61%
14:00 +13°C° 0 mm 3 m/s 672 mmHg 62%
15:00 +12°C° 0 mm 3 m/s 672 mmHg 64%
16:00 +12°C° 0 mm 2 m/s 672 mmHg 69%
17:00 +10°C° 0 mm 2 m/s 672 mmHg 74%
18:00 +11°C° 0 mm 1 m/s 672 mmHg 78%
19:00 +10°C° 0 mm 1 m/s 672 mmHg 81%
20:00 +10°C° 0 mm 1 m/s 673 mmHg 84%
21:00 +9°C° 0 mm 1 m/s 673 mmHg 86%
22:00 +9°C° 0 mm 1 m/s 673 mmHg 87%
23:00 +9°C° 0 mm 1 m/s 672 mmHg 87%

Après-demain, 17 Mai, Lundi

Heure Température Précipitation Vent Pression Humidité
00:00 +9°C° 0 mm 1 m/s 672 mmHg 88%
01:00 +8°C° 0.1 mm 1 m/s 672 mmHg 90%
02:00 +8°C° 0.1 mm 1 m/s 672 mmHg 91%
03:00 +8°C° 0.1 mm 1 m/s 672 mmHg 93%
04:00 +8°C° 0.1 mm 1 m/s 673 mmHg 93%
05:00 +7°C° 0.1 mm 0 m/s 673 mmHg 93%
06:00 +7°C° 0.1 mm 0 m/s 673 mmHg 94%
07:00 +9°C° 0.1 mm 1 m/s 673 mmHg 87%
08:00 +10°C° 0.1 mm 1 m/s 674 mmHg 80%
09:00 +11°C° 0.1 mm 1 m/s 674 mmHg 73%
10:00 +12°C° 0.1 mm 2 m/s 674 mmHg 67%
11:00 +13°C° 0.1 mm 2 m/s 674 mmHg 62%
12:00 +12°C° 0.1 mm 3 m/s 675 mmHg 56%
13:00 +12°C° 0 mm 3 m/s 675 mmHg 57%
14:00 +12°C° 0 mm 3 m/s 675 mmHg 59%
15:00 +12°C° 0 mm 3 m/s 675 mmHg 60%
16:00 +10°C° 0 mm 3 m/s 675 mmHg 66%
17:00 +9°C° 0 mm 2 m/s 675 mmHg 72%
18:00 +8°C° 0 mm 2 m/s 675 mmHg 78%
19:00 +7°C° 0 mm 2 m/s 676 mmHg 81%
20:00 +7°C° 0 mm 1 m/s 676 mmHg 84%
21:00 +6°C° 0 mm 1 m/s 676 mmHg 87%
22:00 +6°C° 0 mm 1 m/s 676 mmHg 88%
23:00 +5°C° 0 mm 1 m/s 676 mmHg 90%

18 Mai, Mardi

Heure Température Précipitation Vent Pression Humidité
00:00 +4°C° 0 mm 1 m/s 676 mmHg 91%
01:00 +4°C° 0 mm 1 m/s 676 mmHg 90%
02:00 +3°C° 0 mm 1 m/s 676 mmHg 90%
03:00 +3°C° 0 mm 1 m/s 676 mmHg 89%
04:00 +3°C° 0 mm 1 m/s 676 mmHg 86%
05:00 +4°C° 0 mm 1 m/s 677 mmHg 83%
06:00 +4°C° 0 mm 1 m/s 677 mmHg 80%
07:00 +7°C° 0 mm 1 m/s 677 mmHg 69%
08:00 +9°C° 0 mm 1 m/s 678 mmHg 58%
09:00 +11°C° 0 mm 1 m/s 678 mmHg 47%
10:00 +12°C° 0 mm 2 m/s 678 mmHg 44%
11:00 +13°C° 0 mm 2 m/s 678 mmHg 41%
12:00 +14°C° 0 mm 2 m/s 679 mmHg 38%
13:00 +13°C° 0 mm 3 m/s 679 mmHg 41%
14:00 +13°C° 0 mm 3 m/s 679 mmHg 43%
15:00 +13°C° 0 mm 4 m/s 679 mmHg 45%
16:00 +12°C° 0 mm 3 m/s 679 mmHg 54%
17:00 +10°C° 0 mm 3 m/s 679 mmHg 62%
18:00 +9°C° 0 mm 2 m/s 679 mmHg 70%
19:00 +8°C° 0 mm 2 m/s 679 mmHg 76%
20:00 +7°C° 0 mm 2 m/s 680 mmHg 83%
21:00 +7°C° 0 mm 1 m/s 680 mmHg 89%
22:00 +6°C° 0 mm 1 m/s 680 mmHg 91%
23:00 +5°C° 0 mm 1 m/s 680 mmHg 92%

19 Mai, Mercredi

Heure Température Précipitation Vent Pression Humidité
00:00 +5°C° 0 mm 1 m/s 679 mmHg 94%
01:00 +4°C° 0 mm 1 m/s 679 mmHg 93%
02:00 +4°C° 0 mm 1 m/s 679 mmHg 92%
03:00 +4°C° 0 mm 1 m/s 679 mmHg 91%
04:00 +4°C° 0 mm 1 m/s 679 mmHg 86%
05:00 +5°C° 0 mm 1 m/s 679 mmHg 81%
06:00 +5°C° 0 mm 1 m/s 679 mmHg 76%
07:00 +8°C° 0 mm 1 m/s 680 mmHg 65%
08:00 +10°C° 0 mm 1 m/s 680 mmHg 55%
09:00 +13°C° 0 mm 1 m/s 680 mmHg 44%
10:00 +14°C° 0 mm 1 m/s 680 mmHg 41%
11:00 +15°C° 0 mm 1 m/s 680 mmHg 39%
12:00 +17°C° 0 mm 2 m/s 681 mmHg 36%
13:00 +17°C° 0 mm 2 m/s 680 mmHg 38%
14:00 +17°C° 0 mm 2 m/s 680 mmHg 39%
15:00 +17°C° 0 mm 2 m/s 680 mmHg 41%
16:00 +16°C° 0 mm 2 m/s 680 mmHg 47%
17:00 +15°C° 0 mm 2 m/s 680 mmHg 54%
18:00 +14°C° 0 mm 2 m/s 680 mmHg 61%
19:00 +12°C° 0 mm 1 m/s 680 mmHg 68%
20:00 +11°C° 0 mm 1 m/s 679 mmHg 76%
21:00 +9°C° 0 mm 1 m/s 679 mmHg 83%
22:00 +9°C° 0 mm 1 m/s 679 mmHg 80%
23:00 +9°C° 0 mm 1 m/s 679 mmHg 76%

20 Mai, Jeudi

Heure Température Précipitation Vent Pression Humidité
00:00 +9°C° 0 mm 1 m/s 679 mmHg 73%
01:00 +9°C° 0 mm 1 m/s 678 mmHg 73%
02:00 +9°C° 0 mm 1 m/s 678 mmHg 73%
03:00 +8°C° 0 mm 2 m/s 678 mmHg 73%
04:00 +9°C° 0 mm 1 m/s 678 mmHg 72%
05:00 +10°C° 0 mm 1 m/s 678 mmHg 71%
06:00 +10°C° 0 mm 1 m/s 678 mmHg 70%
07:00 +13°C° 0 mm 1 m/s 678 mmHg 62%
08:00 +16°C° 0 mm 1 m/s 679 mmHg 54%
09:00 +19°C° 0 mm 1 m/s 679 mmHg 46%
10:00 +20°C° 0 mm 1 m/s 680 mmHg 45%
11:00 +21°C° 0 mm 1 m/s 680 mmHg 43%
12:00 +21°C° 0 mm 2 m/s 680 mmHg 41%
13:00 +21°C° 0 mm 2 m/s 680 mmHg 42%
14:00 +20°C° 0 mm 2 m/s 679 mmHg 43%
15:00 +20°C° 0 mm 2 m/s 679 mmHg 44%
16:00 +19°C° 0 mm 2 m/s 679 mmHg 50%
17:00 +17°C° 0 mm 2 m/s 679 mmHg 56%
18:00 +16°C° 0 mm 1 m/s 679 mmHg 61%
19:00 +14°C° 0 mm 1 m/s 678 mmHg 66%
20:00 +12°C° 0 mm 1 m/s 678 mmHg 71%
21:00 +11°C° 0 mm 1 m/s 678 mmHg 76%
22:00 +11°C° 0 mm 1 m/s 678 mmHg 76%
23:00 +11°C° 0 mm 1 m/s 677 mmHg 77%
Voir plus

Nous avons besoin de votre consentement

Meteoprog et ses fournisseurs de services peuvent stocker et accéder à des données personnelles telles que des cookies, des identifiants d'appareils ou d'autres technologies similaires sur votre appareil et traiter ces données pour personnaliser le contenu et les publicités, ainsi que pour fournir des fonctionnalités de médias sociaux et analyser le trafic.

  • Stocker et/ou accéder à des informations sur votre appareil

    Des cookies, des identifiants d'appareils ou d'autres informations peuvent être stockés ou accessibles sur votre appareil aux fins indiquées ci-dessus.

  • Annonces et contenus personnalisés, mesure des annonces et des contenus, connaissance de l'audience et développement de produits

    Les annonces et le contenu peuvent être personnalisés en fonction d'un profil. D'autres données peuvent être ajoutées pour mieux personnaliser les annonces et le contenu. Les performances des publicités et du contenu peuvent être mesurées. Il est possible d'obtenir des informations sur le public qui a vu les publicités et le contenu. Ces données peuvent être utilisées pour développer ou améliorer l'expérience de l'utilisateur, les systèmes et les logiciels.

En cliquant sur "J'accepte", vous autorisez l'utilisation de cookies, des identifiants d'appareils, des balises web ou d'autres technologies similaires. Vos paramètres peuvent être modifiés dans le navigateur de votre appareil.

Dans certains cas, des intérêts légitimes peuvent être invoqués plutôt qu'un consentement. Vous pouvez en savoir plus à ce sujet dans notre Politique de confidentialité et de cookies.